Date String (YYYY-MM-DD hh:mm:ss) UTC,Instrument flags,Ambient pressure (hPa),Sample flow (lpm),Bypass flow (lpm),Sample temperature (°C),Ambient temperature (°C),ASC tube jacket temperature (°C),LED temperature (°C),Box temperature (°C),Sample RH (%),Span deviation,Mass concentration (μg/m³),Mass concentration (μg/m³),Mass concentration (μg/m³)
DateTimeUTC,F1_M11,P_M11,Q1_M11,Q2_M11,T1_M11,T2_M11,T3_M11,T4_M11,T5_M11,U1_M11,ZSPAN_M11,X0_M11,X2_M11,X1_M11
2023-05-20 19:00:00,,0836.3,4.99,0.00,29.3,27.1,00.0,37.7,30.8,28.1,0003.0,0077.03,0057.24,0054.97
2023-05-20 19:01:00,,0836.2,4.99,0.00,29.3,27.3,00.0,37.7,30.8,28.3,0003.1,0077.08,0057.44,0055.23
2023-05-20 19:02:00,,0836.3,5.00,0.00,29.3,27.4,00.0,37.7,30.8,27.5,0003.1,0076.49,0057.45,0055.31
2023-05-20 19:03:00,,0836.3,5.00,0.00,29.3,27.4,00.0,37.7,30.8,28.5,0003.0,0076.72,0057.61,0055.45
2023-05-20 19:04:00,,0836.3,5.01,0.00,29.3,27.5,00.0,37.6,30.8,28.4,0003.1,0076.67,0057.70,0055.57
2023-05-20 19:05:00,,0836.2,5.01,0.00,29.3,27.6,00.0,37.6,30.8,27.9,0003.0,0076.73,0057.85,0055.74
2023-05-20 19:06:00,,0836.2,5.00,0.00,29.3,27.6,00.0,37.6,30.9,28.4,0003.0,0076.83,0058.08,0055.98
2023-05-20 19:07:00,,0836.3,4.99,0.00,29.3,27.7,00.0,37.6,30.9,27.8,0003.0,0076.74,0058.23,0056.12
2023-05-20 19:08:00,,0836.3,5.00,0.00,29.3,27.7,00.0,37.6,30.9,28.0,0003.1,0077.43,0058.39,0056.22
2023-05-20 19:09:00,,0836.2,5.01,0.00,29.3,27.7,00.0,37.6,30.9,28.1,0003.1,0077.04,0058.52,0056.35
2023-05-20 19:10:00,,0836.2,5.01,0.00,29.3,27.7,00.0,37.6,30.9,27.3,0003.1,0076.93,0058.44,0056.30
2023-05-20 19:11:00,,0836.2,5.00,0.00,29.3,27.8,00.0,37.7,30.9,27.3,0003.0,0076.75,0058.31,0056.20
2023-05-20 19:12:00,,0836.2,4.99,0.00,29.3,27.8,00.0,37.7,30.9,27.0,0002.9,0076.57,0058.21,0056.11
2023-05-20 19:13:00,,0836.2,5.00,0.00,29.3,27.8,00.0,37.7,31.0,27.3,0002.9,0076.61,0058.24,0056.14
2023-05-20 19:14:00,,0836.2,5.01,0.00,29.3,27.8,00.0,37.7,31.0,26.9,0002.9,0076.60,0058.16,0056.04
2023-05-20 19:15:00,,0836.2,5.00,0.00,29.3,27.9,00.0,37.7,31.0,26.5,0002.9,0076.47,0058.00,0055.87
2023-05-20 19:16:00,,0836.2,5.00,0.00,29.4,27.9,00.0,37.7,31.0,26.6,0003.0,0076.37,0057.78,0055.66
2023-05-20 19:17:00,,0836.2,4.99,0.00,29.4,27.9,00.0,37.7,31.0,27.2,0002.9,0076.32,0057.55,0055.39
2023-05-20 19:18:00,,0836.2,4.99,0.00,29.4,28.0,00.0,37.7,31.0,27.0,0002.9,0076.01,0057.34,0055.13
2023-05-20 19:19:00,,0836.2,5.00,0.00,29.4,28.0,00.0,37.7,31.1,26.9,0002.8,0075.41,0057.16,0055.00
2023-05-20 19:20:00,,0836.2,5.00,0.00,29.4,28.0,00.0,37.7,31.1,26.7,0002.8,0075.12,0056.93,0054.82
2023-05-20 19:21:00,,0836.2,5.01,0.00,29.4,28.0,00.0,37.7,31.1,27.3,0002.8,0075.05,0056.77,0054.64
2023-05-20 19:22:00,,0836.2,5.01,0.00,29.4,28.0,00.0,37.8,31.1,27.2,0002.9,0074.84,0056.66,0054.53
2023-05-20 19:23:00,,0836.2,5.01,0.00,29.4,28.0,00.0,37.8,31.1,26.8,0002.9,0074.65,0056.49,0054.32
2023-05-20 19:24:00,,0836.2,5.00,0.00,29.5,28.0,00.0,37.8,31.1,27.1,0002.9,0074.58,0056.42,0054.22
2023-05-20 19:25:00,,0836.2,5.00,0.00,29.5,28.0,00.0,37.8,31.1,26.9,0002.9,0074.45,0056.37,0054.18
2023-05-20 19:26:00,,0836.2,5.00,0.00,29.5,28.1,00.0,37.8,31.1,26.9,0003.0,0074.47,0056.34,0054.17
2023-05-20 19:27:00,,0836.1,5.00,0.00,29.5,28.1,00.0,37.8,31.1,26.8,0002.9,0074.12,0056.32,0054.14
2023-05-20 19:28:00,,0836.1,4.99,0.00,29.5,28.1,00.0,37.8,31.2,27.1,0002.9,0074.14,0056.39,0054.19
2023-05-20 19:29:00,,0836.1,4.99,0.00,29.5,28.1,00.0,37.8,31.2,27.7,0002.9,0074.16,0056.45,0054.24
2023-05-20 19:30:00,,0836.2,4.99,0.00,29.5,28.1,00.0,37.8,31.2,27.3,0002.9,0074.60,0056.55,0054.28
2023-05-20 19:31:00,,0836.2,5.01,0.00,29.6,28.1,00.0,37.9,31.2,26.8,0002.9,0074.68,0056.62,0054.32
2023-05-20 19:32:00,,0836.1,4.98,0.00,29.6,27.3,00.0,37.8,31.1,27.3,0002.9,0074.72,0056.73,0054.43
2023-05-20 19:33:00,,0836.1,5.00,0.00,29.5,25.9,00.0,37.7,31.0,27.1,0002.9,0074.79,0056.78,0054.49
2023-05-20 19:34:00,,0836.1,5.00,0.00,29.5,25.5,00.0,37.6,30.8,26.4,0002.9,0074.97,0056.83,0054.53
2023-05-20 19:35:00,,0836.1,5.01,0.00,29.4,25.8,00.0,37.7,30.7,27.1,0002.8,0074.77,0056.70,0054.45
2023-05-20 19:36:00,,0836.1,5.01,0.00,29.3,26.1,00.0,37.7,30.8,27.0,0002.8,0074.57,0056.52,0054.33
2023-05-20 19:37:00,,0836.1,4.99,0.00,29.3,26.4,00.0,37.7,30.8,26.7,0002.8,0074.63,0056.53,0054.33
2023-05-20 19:38:00,,0836.1,5.00,0.00,29.3,26.7,00.0,37.7,30.8,27.2,0002.9,0074.69,0056.50,0054.29
2023-05-20 19:39:00,,0836.1,5.01,0.00,29.3,27.0,00.0,37.7,30.9,27.6,0002.9,0074.49,0056.38,0054.18
2023-05-20 19:40:00,,0836.1,5.00,0.00,29.3,27.2,00.0,37.7,30.9,27.9,0002.9,0074.78,0056.21,0054.02
2023-05-20 19:41:00,,0836.1,4.99,0.00,29.3,27.4,00.0,37.7,30.9,27.2,0002.9,0074.16,0056.05,0053.88
2023-05-20 19:42:00,,0836.0,5.00,0.00,29.3,27.5,00.0,37.7,30.9,27.2,0003.0,0074.14,0055.89,0053.74
2023-05-20 19:43:00,,0836.0,5.00,0.00,29.3,27.7,00.0,37.7,31.0,26.8,0002.9,0074.45,0055.62,0053.51
2023-05-20 19:44:00,,0836.0,5.00,0.00,29.3,27.8,00.0,37.7,31.0,27.9,0002.9,0074.25,0055.46,0053.36
2023-05-20 19:45:00,,0836.0,5.01,0.00,29.4,27.8,00.0,37.7,31.0,28.5,0003.0,0074.26,0055.29,0053.19
2023-05-20 19:46:00,,0836.0,5.00,0.00,29.4,27.9,00.0,37.7,31.0,27.7,0003.0,0074.37,0055.22,0053.08
2023-05-20 19:47:00,,0836.0,5.00,0.00,29.4,28.0,00.0,37.7,31.0,27.3,0003.0,0074.22,0055.12,0052.95
2023-05-20 19:48:00,,0836.0,5.00,0.00,29.4,27.9,00.0,37.7,31.0,27.2,0003.0,0074.17,0054.92,0052.74
2023-05-20 19:49:00,,0835.9,5.00,0.00,29.4,28.0,00.0,37.7,31.1,27.9,0002.9,0074.15,0054.76,0052.59
2023-05-20 19:50:00,,0835.9,4.99,0.00,29.4,28.0,00.0,37.7,31.1,27.7,0003.0,0074.37,0054.63,0052.48
2023-05-20 19:51:00,,0835.9,5.00,0.00,29.4,28.0,00.0,37.7,31.1,27.0,0003.0,0074.03,0054.63,0052.46
2023-05-20 19:52:00,,0835.9,5.00,0.00,29.5,28.1,00.0,37.7,31.1,27.3,0003.0,0073.85,0054.63,0052.48
2023-05-20 19:53:00,,0835.9,5.00,0.00,29.5,28.1,00.0,37.8,31.1,26.6,0003.0,0073.86,0054.68,0052.53
2023-05-20 19:54:00,,0835.9,5.00,0.00,29.5,28.1,00.0,37.8,31.1,26.6,0003.0,0073.05,0054.70,0052.57
2023-05-20 19:55:00,,0835.9,5.01,0.00,29.5,28.1,00.0,37.8,31.1,26.6,0003.0,0072.94,0054.56,0052.46
2023-05-20 19:56:00,,0835.9,5.00,0.00,29.5,28.1,00.0,37.8,31.2,26.3,0002.9,0073.22,0054.50,0052.41
2023-05-20 19:57:00,,0835.9,5.00,0.00,29.5,28.2,00.0,37.8,31.2,26.8,0002.8,0072.89,0054.40,0052.34
2023-05-20 19:58:00,,0835.9,5.00,0.00,29.6,28.1,00.0,37.8,31.2,27.4,0002.9,0072.53,0054.22,0052.19
2023-05-20 19:59:00,,0835.9,4.99,0.00,29.5,26.9,00.0,37.8,31.1,26.3,0002.9,0072.10,0054.13,0052.10
